Regional Weather Roundup
Issued by NWS

Home | Current Version | Previous Version | Text Only | Print | Product List | Glossary On
Versions: 1 2 3 4 5 6 7 8 9 10 11 12 13 14 15 16 17 18 19 20 21 22 23 24 25 26 27 28 29 30 31 32 33 34 35 36 37 38 39 40 41 42 43 44 45 46 47 48 49 50
000
ASUS45 KBOI 310410
RWRID
WEATHER ROUNDUP FOR IDAHO
NATIONAL WEATHER SERVICE BOISE ID
1000 PM MDT WED JUL 30 2014

NOTE: "FAIR" INDICATES FEW OR NO CLOUDS BELOW 12000 FEET
WITH NO SIGNIFICANT WEATHER AND/OR OBSTRUCTIONS TO VISIBILITY

IDZ012-014-310500-
SOUTHWEST IDAHO


CITY           SKY/WX    TMP DP  RH WIND       PRES   REMARKS
BOISE          PTCLDY    83  45  26 SE5       30.07R
CALDWELL       PTCLDY    79  46  31 SW3       30.08R
MOUNTAIN HOME  MOCLDY    85  45  25 NE10      30.08R
$$

IDZ016-017-310500-
SOUTHCENTRAL IDAHO


CITY           SKY/WX    TMP DP  RH WIND       PRES   REMARKS
BURLEY         PTCLDY    69  55  60 SE5       30.18R
JEROME         PTCLDY    68  53  58 N12       30.17R
TWIN FALLS     PTCLDY    73  52  47 E7        30.18R
$$

IDZ019>023-310500-
SOUTHEAST IDAHO


CITY           SKY/WX    TMP DP  RH WIND       PRES   REMARKS
IDAHO FALLS    MOCLDY    69  54  58 NW12      30.27R
POCATELLO      CLEAR     72  47  40 E9        30.23R
REXBURG        MOCLDY    69  49  48 CALM      30.28R
$$

IDZ006-010-011-018-031-032-310500-
CENTRAL IDAHO MOUNTAINS


CITY           SKY/WX    TMP DP  RH WIND       PRES   REMARKS
MCCALL         MOCLDY    70  46  42 E3        30.23R
HAILEY         PTCLDY    63  55  77 NW9       30.30S
STANLEY          N/A     52  50  93 SE3       30.40R
SALMON         MOCLDY    72  50  46 CALM      30.17R
CHALLIS        MOCLDY    64  49  57 NW6       30.29R
$$

IDZ002-004-006-007-026-310500-
NORTHERN IDAHO


CITY           SKY/WX    TMP DP  RH WIND       PRES   REMARKS
LEWISTON       PTCLDY    93  40  15 SW3       29.95R
LOWELL           N/A     73  57  57 CALM      30.01R
COEUR D`ALENE  CLEAR     81  52  36 S8        29.98R
MULLAN PASS    CLEAR     69  39  33 NW5       30.31R
$$



USA.gov is the U.S. government's official web portal to all federal, state and local government web resources and services.